Regional Weather Roundup
Issued by NWS Sterling, VA

Home | Current Version | Previous Version | Graphics & Text | Print | Product List | Glossary On
Versions: 1 2 3 4 5 6 7 8 9 10 11 12 13 14 15 16 17 18 19 20 21 22 23 24 25 26 27
000
ASUS41 KLWX 050910
RWRLWX

REGIONAL WEATHER ROUNDUP
NATIONAL WEATHER SERVICE BALTIMORE MD/WASHINGTON DC
500 AM EDT THU MAY 05 2016

Note: "FAIR" indicates few or no clouds below 12,000 feet
with no significant weather and/or obstructions to visibility.
 TC=TEMPERATURE CELSIUS

 * =Non NWS site. Station does not report precipitation (e.g. rain,
    snow, etc.), thunder, or fog.

DCZ001-MDZ009-015-VAZ040>042-051-053>054-051000-
WASHINGTON METRO

CITY           SKY/WX    TMP DP  RH WIND       PRES   REMARKS
WASHINGTON NAT CLOUDY    51  49  92 NE9       29.66F
DULLES         CLOUDY    50  47  89 E8        29.67F
ANDREWS AFB    CLOUDY    50  48  93 NE6       29.65F
FT BELVOIR     CLOUDY    51  48  90 VRB2      29.65F
QUANTICO       CLOUDY    53  49  86 E15       29.65F
COLLEGE PARK*  CLOUDY    50  45  81 NE5       29.66F
LEESBURG*      CLOUDY    52  52 100 E3        29.68S
MANASSAS*      CLOUDY    52  48  87 NE8       29.66F
GAITHERSBURG*  CLOUDY    48  45  87 CALM      29.71S

$$

MDZ006>007-011-014-051000-
BALTIMORE METRO

CITY           SKY/WX    TMP DP  RH WIND       PRES   REMARKS
BWI AIRPORT    DRIZZLE   50  48  93 NE9       29.66F FOG
MD SCIENCE CTR   N/A     51  47  86 MISG      29.69S
MARTIN STATE   CLOUDY    52  50  93 CALM      29.70S
ANNAPOLIS      CLOUDY    50  48  93 NE5       29.66F
FORT MEADE*    CLOUDY    48  46  93 N3        29.68F

$$

MDZ012-015-019>023-051000-
MARYLAND EASTERN SHORE

CITY           SKY/WX    TMP DP  RH WIND       PRES   REMARKS
OCEAN CITY     CLOUDY    49  46  90 NE16G23   29.63F
SALISBURY      CLOUDY    49  46  90 NE13      29.62F
CAMBRIDGE*     CLOUDY    48  45  87 NE5       29.64F
EASTON*        CLOUDY   N/A N/A N/A NE8       29.69F

$$

MDZ017>025-051000-
SOUTHERN MARYLAND

CITY           SKY/WX    TMP DP  RH WIND       PRES   REMARKS
PATUXENT RIVER CLOUDY    51  47  86 NE9       29.64F
ST INIGOES     CLOUDY    51  48  89 NE6       29.63F
LEONARDTOWN*   CLOUDY    50  46  87 NE3       29.65F

$$

MDZ003>005-051000-
NORTH CENTRAL MARYLAND

CITY           SKY/WX    TMP DP  RH WIND       PRES   REMARKS
FREDERICK*     CLOUDY    50  50 100 E5        29.70F
HAGERSTOWN APT CLOUDY    50  47  89 E10       29.67F
WESTMINSTER*   CLOUDY    48  30  49 E5          N/A  HAZE

$$

MDZ501>502-051000-
WESTERN MARYLAND

CITY           SKY/WX    TMP DP  RH WIND       PRES   REMARKS
OAKLAND*       FOG       41  41 100 CALM      29.64S VSB 3/4
CUMBERLAND*    CLOUDY    52  52 100 CALM      29.69S

$$

VAZ025>031-051000-
SHENANDOAH VALLEY

CITY           SKY/WX    TMP DP  RH WIND       PRES   REMARKS
WINCHESTER*    LGT RAIN  50  48  93 E5        29.65F
FRONT ROYAL*   CLOUDY    50  50 100 E3        29.64S
LURAY*         CLOUDY    52  52 100 NE7       29.62F
NEW MARKET*    CLOUDY    51  50  99 NE7       29.61F
STAUNTON*      CLOUDY    53  53 100 NE3       29.63F
WAYNESBORO*    CLOUDY    51  48  91 SE5       29.61F

$$

WVZ021-048>050-054>055-051000-
EASTERN WEST VIRGINIA PANHANDLE

CITY           SKY/WX    TMP DP  RH WIND       PRES   REMARKS
MARTINSBURG    CLOUDY    50  47  89 NE3       29.66F
PETERSBURG*    CLOUDY    53  49  87 CALM      29.64F

$$

VAZ036>039-050-051000-
CENTRAL FOOTHILLS

CITY           SKY/WX    TMP DP  RH WIND       PRES   REMARKS
CHARLOTTESVILL CLOUDY    53  51  93 NE10      29.62S
CULPEPER*      CLOUDY    52  51  95 CALM      29.65F
ORANGE*        CLOUDY    52  52 100 CALM      29.65S
GORDONSVILLE*  CLOUDY    52  52  99 NE6       29.62F FOG
WARRENTON*     RAIN      52  47  82 NE7       29.64F

$$

VAZ055>057-051000-
NORTH AND CENTRAL PIEDMONT

CITY           SKY/WX    TMP DP  RH WIND       PRES   REMARKS
FREDERICKSBRG* CLOUDY    52  52 100 NE7       29.62F
STAFFORD*      DRIZZLE   51  49  93 NE6       29.67F

$$

NCZ024-NYZ072-PAZ021-071-VAZ022-071-051000-
OTHER REGIONAL OBSERVATIONS

CITY           SKY/WX    TMP DP  RH WIND       PRES   REMARKS
NEW YORK CITY  CLOUDY    47  43  86 NE6       29.73F
PHILADELPHIA   CLOUDY    50  44  80 NE7       29.69F
PITTSBURGH     LGT RAIN  49  46  90 CALM      29.66R FOG
ROANOKE        LGT RAIN  51  49  92 W3        29.63S
RICHMOND       CLOUDY    53  52  96 N7        29.60F
RALEIGH        FOG       54  54 100 CALM      29.55S VSB 1

$$

ANZ530>537-051000-
MARINE OBSERVATIONS

STATION/POSITION TIME  TEMP    WIND        PRES
                       AIR SEA DIR/SP/G
                 (UTC) (F)     (DEG/KT/KT) (MB)
THOMAS PT LIGHT  0900   50 58   60/ 12/ 13 1005.6F
BALT KEY BRIDGE  0800   50      50/  4/  5 1005.2F
COVE POINT       0800   50      70/ 10/ 14 1005.2R
LEWISETTA        0800   53 62   50/  5/  9 1003.8S
SOLOMONS ISLAND  0800   51 61   20/  4/  7   N/A
PINEY POINT      0800           80/  5/  7   N/A

$$





USA.gov is the U.S. government's official web portal to all federal, state and local government web resources and services.